Wetterdaten: Samstag, 03.08.2013
Datum Zeit Temperatur Luftfeuchte Luftdruck Regen Wind Richtung Richtung Taupunkt Windchill Windben
03.08.2013 00:00 17,7 C 69 % 1021,2 hPa 0,0 l/m 0,0 km/h (0 Bft) O-SO 112 11,9 C 17,8 C 0,0 km/h (0 Bft)
03.08.2013 00:05 18,1 C 68 % 1021,2 hPa 0,0 l/m 0,0 km/h (0 Bft) SO 135 12,1 C 18,0 C 0,0 km/h (0 Bft)
03.08.2013 00:10 18,2 C 68 % 1021,2 hPa 0,0 l/m 0,0 km/h (0 Bft) S 180 12,2 C 18,2 C 0,0 km/h (0 Bft)
03.08.2013 00:15 17,9 C 68 % 1021,2 hPa 0,0 l/m 0,0 km/h (0 Bft) S-SW 202 11,9 C 18,3 C 0,0 km/h (0 Bft)
03.08.2013 00:20 17,7 C 69 % 1021,2 hPa 0,0 l/m 0,0 km/h (0 Bft) W-SW 247 11,9 C 18,2 C 0,0 km/h (0 Bft)
03.08.2013 00:25 17,8 C 70 % 1021,0 hPa 0,0 l/m 0,0 km/h (0 Bft) O-NO 67 12,3 C 18,0 C 0,0 km/h (0 Bft)
03.08.2013 00:30 17,8 C 70 % 1021,0 hPa 0,0 l/m 0,0 km/h (0 Bft) NW 315 12,3 C 17,8 C 0,0 km/h (0 Bft)
03.08.2013 00:35 17,5 C 70 % 1021,0 hPa 0,0 l/m 0,0 km/h (0 Bft) NO 45 12,0 C 17,6 C 0,0 km/h (0 Bft)
03.08.2013 00:40 17,5 C 71 % 1021,0 hPa 0,0 l/m 0,0 km/h (0 Bft) NO 45 12,2 C 17,4 C 0,0 km/h (0 Bft)
03.08.2013 00:45 17,4 C 71 % 1021,2 hPa 0,0 l/m 0,0 km/h (0 Bft) NO 45 12,1 C 17,2 C 0,0 km/h (0 Bft)
03.08.2013 00:50 17,0 C 72 % 1021,2 hPa 0,0 l/m 0,0 km/h (0 Bft) NO 45 11,9 C 17,0 C 0,0 km/h (0 Bft)
03.08.2013 00:55 17,0 C 72 % 1021,2 hPa 0,0 l/m 0,0 km/h (0 Bft) N-NW 337 11,9 C 16,9 C 0,0 km/h (0 Bft)
03.08.2013 01:00 16,9 C 73 % 1021,2 hPa 0,0 l/m 0,0 km/h (0 Bft) W-NW 292 12,0 C 16,7 C 0,0 km/h (0 Bft)
03.08.2013 01:05 16,7 C 73 % 1021,1 hPa 0,0 l/m 0,0 km/h (0 Bft) S 180 11,8 C 16,6 C 0,0 km/h (0 Bft)
03.08.2013 01:10 16,6 C 74 % 1021,1 hPa 0,0 l/m 0,0 km/h (0 Bft) S 180 11,9 C 16,6 C 0,0 km/h (0 Bft)
03.08.2013 01:15 16,8 C 73 % 1021,1 hPa 0,0 l/m 0,0 km/h (0 Bft) S 180 11,9 C 16,5 C 0,0 km/h (0 Bft)
03.08.2013 01:20 16,7 C 73 % 1021,1 hPa 0,0 l/m 0,0 km/h (0 Bft) S 180 11,8 C 16,6 C 0,0 km/h (0 Bft)
03.08.2013 01:25 16,5 C 74 % 1021,0 hPa 0,0 l/m 0,0 km/h (0 Bft) NO 45 11,8 C 16,5 C 0,0 km/h (0 Bft)
03.08.2013 01:30 16,4 C 74 % 1021,0 hPa 0,0 l/m 0,0 km/h (0 Bft) N-NO 22 11,8 C 16,3 C 0,0 km/h (0 Bft)
03.08.2013 01:35 16,3 C 75 % 1021,0 hPa 0,0 l/m 0,0 km/h (0 Bft) O 90 11,9 C 16,3 C 0,0 km/h (0 Bft)
03.08.2013 01:40 16,5 C 75 % 1021,0 hPa 0,0 l/m 0,0 km/h (0 Bft) SO 135 12,1 C 16,5 C 0,0 km/h (0 Bft)
03.08.2013 01:45 16,7 C 75 % 1020,8 hPa 0,0 l/m 0,0 km/h (0 Bft) N-NW 337 12,2 C 16,9 C 0,0 km/h (0 Bft)
03.08.2013 01:50 16,8 C 74 % 1020,8 hPa 0,0 l/m 0,2 km/h (0 Bft) W-NW 292 12,1 C 17,0 C 0,0 km/h (0 Bft)
03.08.2013 01:55 16,6 C 73 % 1020,8 hPa 0,0 l/m 0,2 km/h (0 Bft) W-NW 292 11,7 C 17,0 C 0,0 km/h (0 Bft)
03.08.2013 02:00 16,8 C 74 % 1020,8 hPa 0,0 l/m 0,0 km/h (0 Bft) N-NO 22 12,1 C 16,6 C 0,0 km/h (0 Bft)
03.08.2013 02:05 16,9 C 74 % 1021,0 hPa 0,0 l/m 0,0 km/h (0 Bft) NO 45 12,2 C 16,4 C 0,0 km/h (0 Bft)
03.08.2013 02:10 16,6 C 74 % 1021,0 hPa 0,0 l/m 0,0 km/h (0 Bft) N-NO 22 11,9 C 16,3 C 0,0 km/h (0 Bft)
03.08.2013 02:15 16,6 C 75 % 1021,0 hPa 0,0 l/m 0,0 km/h (0 Bft) N-NO 22 12,1 C 16,2 C 0,0 km/h (0 Bft)
03.08.2013 02:20 16,6 C 75 % 1021,0 hPa 0,0 l/m 0,0 km/h (0 Bft) W-NW 292 12,1 C 16,1 C 0,0 km/h (0 Bft)
03.08.2013 02:25 16,6 C 76 % 1020,8 hPa 0,0 l/m 0,0 km/h (0 Bft) NO 45 12,3 C 16,0 C 0,0 km/h (0 Bft)
03.08.2013 02:30 16,9 C 75 % 1020,8 hPa 0,0 l/m 0,3 km/h (0 Bft) O 90 12,4 C 16,1 C 2,3 km/h (1 Bft)
03.08.2013 02:35 16,8 C 74 % 1020,8 hPa 0,0 l/m 0,3 km/h (0 Bft) NO 45 12,1 C 16,2 C 0,0 km/h (0 Bft)
03.08.2013 02:40 16,4 C 73 % 1020,8 hPa 0,0 l/m 0,2 km/h (0 Bft) NO 45 11,5 C 16,2 C 0,0 km/h (0 Bft)
03.08.2013 02:45 16,1 C 74 % 1020,7 hPa 0,0 l/m 0,0 km/h (0 Bft) NO 45 11,5 C 16,1 C 0,0 km/h (0 Bft)
03.08.2013 02:50 15,9 C 76 % 1020,7 hPa 0,0 l/m 0,0 km/h (0 Bft) N 360 11,7 C 15,9 C 0,0 km/h (0 Bft)
03.08.2013 02:55 15,8 C 76 % 1020,7 hPa 0,0 l/m 0,0 km/h (0 Bft) N 360 11,6 C 15,7 C 0,0 km/h (0 Bft)
03.08.2013 03:00 15,7 C 77 % 1020,7 hPa 0,0 l/m 0,0 km/h (0 Bft) N 360 11,7 C 15,5 C 0,0 km/h (0 Bft)
03.08.2013 03:05 15,6 C 77 % 1020,8 hPa 0,0 l/m 0,0 km/h (0 Bft) N 360 11,6 C 15,5 C 0,0 km/h (0 Bft)
03.08.2013 03:10 15,4 C 77 % 1020,8 hPa 0,0 l/m 0,0 km/h (0 Bft) N-NW 337 11,4 C 15,4 C 0,0 km/h (0 Bft)
03.08.2013 03:15 15,4 C 77 % 1020,8 hPa 0,0 l/m 0,0 km/h (0 Bft) N-NW 337 11,4 C 15,3 C 0,0 km/h (0 Bft)
03.08.2013 03:20 15,7 C 78 % 1020,8 hPa 0,0 l/m 0,2 km/h (0 Bft) N-NW 337 11,9 C 15,5 C 0,0 km/h (0 Bft)
03.08.2013 03:25 15,7 C 78 % 1020,6 hPa 0,0 l/m 0,3 km/h (0 Bft) N 360 11,9 C 15,5 C 2,1 km/h (1 Bft)
03.08.2013 03:30 15,7 C 78 % 1020,6 hPa 0,0 l/m 0,3 km/h (0 Bft) N-NO 22 11,9 C 15,7 C 0,0 km/h (0 Bft)
03.08.2013 03:35 15,8 C 78 % 1020,6 hPa 0,0 l/m 0,2 km/h (0 Bft) N 360 12,0 C 15,7 C 0,0 km/h (0 Bft)
03.08.2013 03:40 15,9 C 78 % 1020,6 hPa 0,0 l/m 0,2 km/h (0 Bft) N-NW 337 12,1 C 15,7 C 0,0 km/h (0 Bft)
03.08.2013 03:45 15,9 C 78 % 1020,3 hPa 0,0 l/m 0,2 km/h (0 Bft) N 360 12,1 C 15,7 C 0,0 km/h (0 Bft)
03.08.2013 03:50 15,7 C 77 % 1020,3 hPa 0,0 l/m 0,0 km/h (0 Bft) N-NW 337 11,7 C 15,6 C 0,0 km/h (0 Bft)
03.08.2013 03:55 15,7 C 77 % 1020,3 hPa 0,0 l/m 0,0 km/h (0 Bft) N-NW 337 11,7 C 15,6 C 0,0 km/h (0 Bft)
03.08.2013 04:00 15,7 C 78 % 1020,3 hPa 0,0 l/m 0,0 km/h (0 Bft) N 360 11,9 C 15,5 C 0,0 km/h (0 Bft)
03.08.2013 04:05 15,8 C 77 % 1020,3 hPa 0,0 l/m 0,0 km/h (0 Bft) N 360 11,8 C 15,5 C 0,0 km/h (0 Bft)
03.08.2013 04:10 15,6 C 77 % 1020,3 hPa 0,0 l/m 0,0 km/h (0 Bft) NO 45 11,6 C 15,4 C 0,0 km/h (0 Bft)
03.08.2013 04:15 15,5 C 77 % 1020,3 hPa 0,0 l/m 0,0 km/h (0 Bft) N 360 11,5 C 15,4 C 0,0 km/h (0 Bft)
03.08.2013 04:20 15,7 C 78 % 1020,3 hPa 0,0 l/m 0,0 km/h (0 Bft) N-NW 337 11,9 C 15,4 C 0,0 km/h (0 Bft)
03.08.2013 04:25 15,5 C 78 % 1020,4 hPa 0,0 l/m 0,0 km/h (0 Bft) NW 315 11,7 C 15,3 C 0,0 km/h (0 Bft)
03.08.2013 04:30 15,3 C 78 % 1020,4 hPa 0,0 l/m 0,0 km/h (0 Bft) N-NW 337 11,5 C 15,2 C 0,0 km/h (0 Bft)
03.08.2013 04:35 15,3 C 78 % 1020,4 hPa 0,0 l/m 0,0 km/h (0 Bft) N 360 11,5 C 15,1 C 0,0 km/h (0 Bft)
03.08.2013 04:40 15,7 C 79 % 1020,4 hPa 0,0 l/m 0,0 km/h (0 Bft) N-NW 337 12,1 C 15,1 C 0,0 km/h (0 Bft)
03.08.2013 04:45 15,5 C 79 % 1020,2 hPa 0,0 l/m 0,0 km/h (0 Bft) N 360 11,9 C 15,2 C 0,0 km/h (0 Bft)
03.08.2013 04:50 15,6 C 79 % 1020,2 hPa 0,0 l/m 0,2 km/h (0 Bft) O 90 12,0 C 15,1 C 2,3 km/h (1 Bft)
03.08.2013 04:55 15,6 C 79 % 1020,2 hPa 0,0 l/m 0,2 km/h (0 Bft) NO 45 12,0 C 15,1 C 2,1 km/h (1 Bft)
03.08.2013 05:00 15,7 C 78 % 1020,2 hPa 0,0 l/m 0,2 km/h (0 Bft) S 180 11,9 C 15,1 C 0,0 km/h (0 Bft)
03.08.2013 05:05 15,4 C 78 % 1020,4 hPa 0,0 l/m 0,0 km/h (0 Bft) S 180 11,6 C 15,1 C 0,0 km/h (0 Bft)
03.08.2013 05:10 15,2 C 79 % 1020,4 hPa 0,0 l/m 0,0 km/h (0 Bft) S 180 11,6 C 15,0 C 0,0 km/h (0 Bft)
03.08.2013 05:15 15,0 C 79 % 1020,4 hPa 0,0 l/m 0,0 km/h (0 Bft) S 180 11,4 C 14,9 C 0,0 km/h (0 Bft)
03.08.2013 05:20 14,9 C 80 % 1020,4 hPa 0,0 l/m 0,0 km/h (0 Bft) O-SO 112 11,5 C 14,6 C 0,0 km/h (0 Bft)
03.08.2013 05:25 14,8 C 80 % 1020,3 hPa 0,0 l/m 0,0 km/h (0 Bft) S 180 11,4 C 14,6 C 0,0 km/h (0 Bft)
03.08.2013 05:30 14,7 C 81 % 1020,3 hPa 0,0 l/m 0,0 km/h (0 Bft) SO 135 11,5 C 14,5 C 0,0 km/h (0 Bft)
03.08.2013 05:35 14,9 C 81 % 1020,3 hPa 0,0 l/m 0,0 km/h (0 Bft) O-SO 112 11,7 C 14,5 C 0,0 km/h (0 Bft)
03.08.2013 05:40 14,8 C 81 % 1020,3 hPa 0,0 l/m 0,0 km/h (0 Bft) O 90 11,6 C 14,5 C 0,0 km/h (0 Bft)
03.08.2013 05:45 14,7 C 81 % 1020,4 hPa 0,0 l/m 0,0 km/h (0 Bft) O 90 11,5 C 14,5 C 0,0 km/h (0 Bft)
03.08.2013 05:50 14,9 C 81 % 1020,4 hPa 0,0 l/m 0,0 km/h (0 Bft) N-NO 22 11,7 C 14,6 C 0,0 km/h (0 Bft)
03.08.2013 05:55 14,8 C 81 % 1020,4 hPa 0,0 l/m 0,0 km/h (0 Bft) O 90 11,6 C 14,7 C 0,0 km/h (0 Bft)
03.08.2013 06:00 14,8 C 81 % 1020,4 hPa 0,0 l/m 0,0 km/h (0 Bft) O 90 11,6 C 14,7 C 0,0 km/h (0 Bft)
03.08.2013 06:05 14,8 C 81 % 1020,5 hPa 0,0 l/m 0,0 km/h (0 Bft) S 180 11,6 C 14,7 C 0,0 km/h (0 Bft)
03.08.2013 06:10 14,6 C 81 % 1020,5 hPa 0,0 l/m 0,0 km/h (0 Bft) S-SO 157 11,4 C 14,7 C 0,0 km/h (0 Bft)
03.08.2013 06:15 14,6 C 81 % 1020,5 hPa 0,0 l/m 0,0 km/h (0 Bft) O 90 11,4 C 14,5 C 0,0 km/h (0 Bft)
03.08.2013 06:20 14,8 C 81 % 1020,5 hPa 0,0 l/m 0,0 km/h (0 Bft) NO 45 11,6 C 14,5 C 0,0 km/h (0 Bft)
03.08.2013 06:25 15,1 C 81 % 1020,9 hPa 0,0 l/m 0,0 km/h (0 Bft) NW 315 11,9 C 14,7 C 0,0 km/h (0 Bft)
03.08.2013 06:30 15,1 C 80 % 1020,9 hPa 0,0 l/m 0,0 km/h (0 Bft) W-NW 292 11,7 C 15,0 C 0,0 km/h (0 Bft)
03.08.2013 06:35 15,1 C 79 % 1020,9 hPa 0,0 l/m 0,0 km/h (0 Bft) N-NO 22 11,5 C 15,0 C 0,0 km/h (0 Bft)
03.08.2013 06:40 15,2 C 79 % 1020,9 hPa 0,0 l/m 0,0 km/h (0 Bft) W-NW 292 11,6 C 15,2 C 0,0 km/h (0 Bft)
03.08.2013 06:45 15,5 C 79 % 1021,3 hPa 0,0 l/m 0,0 km/h (0 Bft) O 90 11,9 C 15,4 C 0,0 km/h (0 Bft)
03.08.2013 06:50 16,0 C 78 % 1021,3 hPa 0,0 l/m 0,8 km/h (0 Bft) O 90 12,2 C 15,9 C 7,6 km/h (2 Bft)
03.08.2013 06:55 17,5 C 74 % 1021,3 hPa 0,0 l/m 2,3 km/h (1 Bft) S 180 12,8 C 16,6 C 3,9 km/h (1 Bft)
03.08.2013 07:00 17,7 C 73 % 1021,3 hPa 0,0 l/m 2,1 km/h (1 Bft) W-SW 247 12,8 C 17,8 C 0,0 km/h (0 Bft)
03.08.2013 07:05 18,0 C 72 % 1022,2 hPa 0,0 l/m 0,8 km/h (0 Bft) W-SW 247 12,9 C 18,4 C 4,2 km/h (1 Bft)
03.08.2013 07:10 18,7 C 69 % 1022,2 hPa 0,0 l/m 1,6 km/h (1 Bft) SO 135 12,9 C 18,9 C 1,6 km/h (1 Bft)
03.08.2013 07:15 19,5 C 68 % 1022,2 hPa 0,0 l/m 1,8 km/h (1 Bft) S-SW 202 13,4 C 19,6 C 0,0 km/h (0 Bft)
03.08.2013 07:20 20,6 C 63 % 1022,2 hPa 0,0 l/m 2,7 km/h (1 Bft) S-SW 202 13,3 C 20,7 C 11,9 km/h (2 Bft)
03.08.2013 07:25 21,1 C 59 % 1022,6 hPa 0,0 l/m 4,3 km/h (1 Bft) SO 135 12,8 C 21,2 C 7,7 km/h (2 Bft)
03.08.2013 07:30 21,2 C 59 % 1022,6 hPa 0,0 l/m 4,7 km/h (1 Bft) NO 45 12,9 C 22,0 C 4,5 km/h (1 Bft)
03.08.2013 07:35 21,0 C 58 % 1022,6 hPa 0,0 l/m 4,3 km/h (1 Bft) O-SO 112 12,4 C 22,5 C 12,1 km/h (2 Bft)
03.08.2013 07:40 21,2 C 56 % 1022,6 hPa 0,0 l/m 4,0 km/h (1 Bft) S 180 12,1 C 23,3 C 12,6 km/h (3 Bft)
03.08.2013 07:45 22,4 C 55 % 1022,9 hPa 0,0 l/m 5,3 km/h (1 Bft) S-SO 157 12,9 C 23,7 C 5,6 km/h (1 Bft)
03.08.2013 07:50 23,6 C 50 % 1022,9 hPa 0,0 l/m 6,1 km/h (2 Bft) W-SW 247 12,6 C 24,3 C 8,0 km/h (2 Bft)
03.08.2013 07:55 24,6 C 47 % 1022,9 hPa 0,0 l/m 5,5 km/h (1 Bft) O-NO 67 12,5 C 24,8 C 4,7 km/h (1 Bft)
03.08.2013 08:00 25,7 C 48 % 1022,9 hPa 0,0 l/m 5,3 km/h (1 Bft) W-SW 247 13,9 C 25,5 C 2,9 km/h (1 Bft)
03.08.2013 08:05 25,7 C 45 % 1023,2 hPa 0,0 l/m 3,9 km/h (1 Bft) W 270 12,9 C 26,0 C 2,1 km/h (1 Bft)
03.08.2013 08:10 26,4 C 44 % 1023,2 hPa 0,0 l/m 3,5 km/h (1 Bft) S 180 13,1 C 26,6 C 5,0 km/h (1 Bft)
03.08.2013 08:15 27,0 C 44 % 1023,2 hPa 0,0 l/m 4,5 km/h (1 Bft) S 180 13,7 C 26,9 C 7,6 km/h (2 Bft)
03.08.2013 08:20 27,2 C 44 % 1023,2 hPa 0,0 l/m 3,4 km/h (1 Bft) SW 225 13,9 C 27,6 C 2,7 km/h (1 Bft)
03.08.2013 08:25 27,8 C 44 % 1023,6 hPa 0,0 l/m 2,9 km/h (1 Bft) S 180 14,4 C 28,1 C 6,8 km/h (2 Bft)
03.08.2013 08:30 28,3 C 44 % 1023,6 hPa 0,0 l/m 3,5 km/h (1 Bft) S 180 14,9 C 28,5 C 10,5 km/h (2 Bft)
03.08.2013 08:35 28,2 C 43 % 1023,6 hPa 0,0 l/m 3,5 km/h (1 Bft) SO 135 14,4 C 28,6 C 3,1 km/h (1 Bft)
03.08.2013 08:40 28,8 C 42 % 1023,6 hPa 0,0 l/m 4,5 km/h (1 Bft) O-SO 112 14,6 C 28,8 C 6,1 km/h (2 Bft)
03.08.2013 08:45 28,8 C 41 % 1024,0 hPa 0,0 l/m 5,5 km/h (1 Bft) S 180 14,2 C 28,7 C 7,7 km/h (2 Bft)
03.08.2013 08:50 29,4 C 40 % 1024,0 hPa 0,0 l/m 5,8 km/h (2 Bft) S-SO 157 14,4 C 28,8 C 13,4 km/h (3 Bft)
03.08.2013 08:55 30,0 C 39 % 1024,0 hPa 0,0 l/m 5,1 km/h (1 Bft) SO 135 14,5 C 29,0 C 11,1 km/h (2 Bft)
03.08.2013 09:00 29,5 C 38 % 1024,0 hPa 0,0 l/m 4,5 km/h (1 Bft) S 180 13,7 C 29,5 C 8,7 km/h (2 Bft)
03.08.2013 09:05 30,0 C 40 % 1024,0 hPa 0,0 l/m 4,5 km/h (1 Bft) S 180 14,9 C 29,7 C 6,1 km/h (2 Bft)
03.08.2013 09:10 30,3 C 39 % 1024,0 hPa 0,0 l/m 3,5 km/h (1 Bft) S-SO 157 14,8 C 30,1 C 6,4 km/h (2 Bft)
03.08.2013 09:15 30,4 C 39 % 1024,0 hPa 0,0 l/m 3,2 km/h (1 Bft) SO 135 14,9 C 30,4 C 2,9 km/h (1 Bft)
03.08.2013 09:20 30,8 C 40 % 1024,0 hPa 0,0 l/m 3,1 km/h (1 Bft) S-SO 157 15,6 C 30,9 C 2,4 km/h (1 Bft)
03.08.2013 09:25 30,7 C 38 % 1023,9 hPa 0,0 l/m 2,7 km/h (1 Bft) S-SW 202 14,7 C 31,2 C 4,2 km/h (1 Bft)
03.08.2013 09:30 30,3 C 37 % 1023,9 hPa 0,0 l/m 4,2 km/h (1 Bft) SO 135 14,0 C 31,1 C 9,3 km/h (2 Bft)
03.08.2013 09:35 30,5 C 37 % 1023,9 hPa 0,0 l/m 5,5 km/h (1 Bft) S 180 14,1 C 30,9 C 11,1 km/h (2 Bft)
03.08.2013 09:40 31,0 C 38 % 1023,9 hPa 0,0 l/m 4,8 km/h (1 Bft) S 180 15,0 C 31,1 C 4,8 km/h (1 Bft)
03.08.2013 09:45 30,8 C 38 % 1024,4 hPa 0,0 l/m 3,5 km/h (1 Bft) S-SO 157 14,8 C 31,5 C 8,0 km/h (2 Bft)
03.08.2013 09:50 31,3 C 37 % 1024,4 hPa 0,0 l/m 2,7 km/h (1 Bft) S 180 14,8 C 31,8 C 4,8 km/h (1 Bft)
03.08.2013 09:55 31,4 C 37 % 1024,4 hPa 0,0 l/m 3,2 km/h (1 Bft) SW 225 14,9 C 32,0 C 4,2 km/h (1 Bft)
03.08.2013 10:00 31,5 C 36 % 1024,4 hPa 0,0 l/m 3,1 km/h (1 Bft) S-SO 157 14,6 C 32,1 C 3,4 km/h (1 Bft)
03.08.2013 10:05 31,2 C 36 % 1024,5 hPa 0,0 l/m 3,5 km/h (1 Bft) S 180 14,3 C 32,1 C 4,3 km/h (1 Bft)
03.08.2013 10:10 31,7 C 35 % 1024,5 hPa 0,0 l/m 4,0 km/h (1 Bft) S-SO 157 14,3 C 32,0 C 2,4 km/h (1 Bft)
03.08.2013 10:15 32,5 C 36 % 1024,5 hPa 0,0 l/m 3,4 km/h (1 Bft) S 180 15,5 C 32,5 C 4,8 km/h (1 Bft)
03.08.2013 10:20 31,9 C 34 % 1024,5 hPa 0,0 l/m 2,9 km/h (1 Bft) S-SW 202 14,1 C 32,7 C 2,6 km/h (1 Bft)
03.08.2013 10:25 31,7 C 35 % 1024,7 hPa 0,0 l/m 3,5 km/h (1 Bft) S-SO 157 14,3 C 32,7 C 4,7 km/h (1 Bft)
03.08.2013 10:30 31,6 C 36 % 1024,7 hPa 0,0 l/m 4,0 km/h (1 Bft) S 180 14,7 C 32,4 C 4,0 km/h (1 Bft)
03.08.2013 10:35 31,5 C 34 % 1024,7 hPa 0,0 l/m 4,7 km/h (1 Bft) W-SW 247 13,7 C 32,3 C 7,1 km/h (2 Bft)
03.08.2013 10:40 31,8 C 35 % 1024,7 hPa 0,0 l/m 4,3 km/h (1 Bft) W 270 14,4 C 32,3 C 6,3 km/h (2 Bft)
03.08.2013 10:45 31,9 C 35 % 1025,0 hPa 0,0 l/m 4,0 km/h (1 Bft) S 180 14,5 C 32,5 C 3,9 km/h (1 Bft)
03.08.2013 10:50 31,6 C 34 % 1025,0 hPa 0,0 l/m 3,7 km/h (1 Bft) S-SW 202 13,8 C 32,8 C 4,2 km/h (1 Bft)
03.08.2013 10:55 31,9 C 34 % 1025,0 hPa 0,0 l/m 3,2 km/h (1 Bft) W 270 14,1 C 32,9 C 2,9 km/h (1 Bft)
03.08.2013 11:00 32,2 C 33 % 1025,0 hPa 0,0 l/m 3,2 km/h (1 Bft) W-SW 247 13,9 C 33,1 C 5,1 km/h (1 Bft)
03.08.2013 11:05 31,8 C 34 % 1025,4 hPa 0,0 l/m 3,2 km/h (1 Bft) W-NW 292 14,0 C 33,1 C 3,1 km/h (1 Bft)
03.08.2013 11:10 32,3 C 33 % 1025,4 hPa 0,0 l/m 3,1 km/h (1 Bft) W-NW 292 13,9 C 33,3 C 2,6 km/h (1 Bft)
03.08.2013 11:15 32,5 C 32 % 1025,4 hPa 0,0 l/m 3,5 km/h (1 Bft) SW 225 13,6 C 33,3 C 4,7 km/h (1 Bft)
03.08.2013 11:20 32,2 C 32 % 1025,4 hPa 0,0 l/m 3,1 km/h (1 Bft) NO 45 13,4 C 33,3 C 2,7 km/h (1 Bft)
03.08.2013 11:25 32,6 C 33 % 1025,2 hPa 0,0 l/m 2,6 km/h (1 Bft) S 180 14,2 C 33,6 C 8,7 km/h (2 Bft)
03.08.2013 11:30 32,9 C 33 % 1025,2 hPa 0,0 l/m 2,6 km/h (1 Bft) S 180 14,5 C 33,8 C 0,0 km/h (0 Bft)
03.08.2013 11:35 32,9 C 32 % 1025,2 hPa 0,0 l/m 2,4 km/h (1 Bft) S-SW 202 14,0 C 34,2 C 2,4 km/h (1 Bft)
03.08.2013 11:40 33,6 C 30 % 1025,2 hPa 0,0 l/m 1,6 km/h (1 Bft) S-SW 202 13,6 C 34,6 C 6,1 km/h (2 Bft)
03.08.2013 11:45 33,2 C 30 % 1024,9 hPa 0,0 l/m 1,8 km/h (1 Bft) W-SW 247 13,3 C 34,3 C 5,0 km/h (1 Bft)
03.08.2013 11:50 32,7 C 32 % 1024,9 hPa 0,0 l/m 2,9 km/h (1 Bft) W 270 13,8 C 33,5 C 7,1 km/h (2 Bft)
03.08.2013 11:55 32,6 C 33 % 1024,9 hPa 0,0 l/m 2,6 km/h (1 Bft) SO 135 14,2 C 32,9 C 2,3 km/h (1 Bft)
03.08.2013 12:00 33,3 C 30 % 1024,9 hPa 0,0 l/m 2,1 km/h (1 Bft) S-SW 202 13,3 C 33,4 C 4,3 km/h (1 Bft)
03.08.2013 12:05 33,0 C 31 % 1025,2 hPa 0,0 l/m 2,7 km/h (1 Bft) S 180 13,6 C 33,7 C 4,3 km/h (1 Bft)
03.08.2013 12:10 32,3 C 33 % 1025,2 hPa 0,0 l/m 4,2 km/h (1 Bft) S 180 13,9 C 33,6 C 7,7 km/h (2 Bft)
03.08.2013 12:15 31,4 C 33 % 1025,2 hPa 0,0 l/m 4,0 km/h (1 Bft) W-NW 292 13,2 C 33,3 C 2,1 km/h (1 Bft)
03.08.2013 12:20 32,9 C 34 % 1025,2 hPa 0,0 l/m 2,3 km/h (1 Bft) W-NW 292 14,9 C 33,8 C 2,6 km/h (1 Bft)
03.08.2013 12:25 32,8 C 33 % 1025,1 hPa 0,0 l/m 1,4 km/h (1 Bft) W-SW 247 14,4 C 34,4 C 3,2 km/h (1 Bft)
03.08.2013 12:30 32,7 C 33 % 1025,1 hPa 0,0 l/m 2,3 km/h (1 Bft) S 180 14,3 C 34,9 C 5,1 km/h (1 Bft)
03.08.2013 12:35 31,6 C 32 % 1025,1 hPa 0,0 l/m 3,5 km/h (1 Bft) N 360 12,9 C 34,6 C 2,1 km/h (1 Bft)
03.08.2013 12:40 30,4 C 36 % 1025,1 hPa 0,0 l/m 3,9 km/h (1 Bft) N-NW 337 13,6 C 33,7 C 3,7 km/h (1 Bft)
03.08.2013 12:45 31,4 C 35 % 1025,0 hPa 0,0 l/m 3,2 km/h (1 Bft) NW 315 14,1 C 33,2 C 3,1 km/h (1 Bft)
03.08.2013 12:50 29,9 C 37 % 1025,0 hPa 0,0 l/m 4,3 km/h (1 Bft) SW 225 13,6 C 32,6 C 6,3 km/h (2 Bft)
03.08.2013 12:55 30,1 C 37 % 1025,0 hPa 0,0 l/m 4,7 km/h (1 Bft) S 180 13,8 C 32,0 C 3,9 km/h (1 Bft)
03.08.2013 13:00 30,4 C 39 % 1025,0 hPa 0,0 l/m 3,7 km/h (1 Bft) W-NW 292 14,9 C 32,0 C 6,1 km/h (2 Bft)
03.08.2013 13:05 30,0 C 38 % 1024,8 hPa 0,0 l/m 4,0 km/h (1 Bft) W-NW 292 14,1 C 31,9 C 7,9 km/h (2 Bft)
03.08.2013 13:10 29,3 C 39 % 1024,8 hPa 0,0 l/m 3,5 km/h (1 Bft) W-SW 247 13,9 C 31,6 C 4,0 km/h (1 Bft)
03.08.2013 13:15 29,9 C 40 % 1024,8 hPa 0,0 l/m 3,2 km/h (1 Bft) S-SW 202 14,8 C 31,6 C 4,0 km/h (1 Bft)
03.08.2013 13:20 30,4 C 39 % 1024,8 hPa 0,0 l/m 3,2 km/h (1 Bft) W-NW 292 14,9 C 32,2 C 0,0 km/h (0 Bft)
03.08.2013 13:25 30,9 C 36 % 1024,8 hPa 0,0 l/m 3,7 km/h (1 Bft) W-NW 292 14,1 C 32,6 C 6,4 km/h (2 Bft)
03.08.2013 13:30 31,2 C 37 % 1024,8 hPa 0,0 l/m 3,1 km/h (1 Bft) S-SW 202 14,8 C 33,2 C 4,7 km/h (1 Bft)
03.08.2013 13:35 31,4 C 35 % 1024,8 hPa 0,0 l/m 2,4 km/h (1 Bft) O 90 14,1 C 34,2 C 0,0 km/h (0 Bft)
03.08.2013 13:40 31,7 C 36 % 1024,8 hPa 0,0 l/m 2,6 km/h (1 Bft) N 360 14,8 C 34,7 C 3,1 km/h (1 Bft)
03.08.2013 13:45 31,4 C 35 % 1024,8 hPa 0,0 l/m 2,1 km/h (1 Bft) S 180 14,1 C 34,8 C 3,1 km/h (1 Bft)
03.08.2013 13:50 32,0 C 37 % 1024,8 hPa 0,0 l/m 2,3 km/h (1 Bft) N 360 15,5 C 35,0 C 8,9 km/h (2 Bft)
03.08.2013 13:55 31,7 C 36 % 1024,8 hPa 0,0 l/m 3,2 km/h (1 Bft) W-NW 292 14,8 C 35,1 C 6,8 km/h (2 Bft)
03.08.2013 14:00 31,4 C 35 % 1024,8 hPa 0,0 l/m 4,0 km/h (1 Bft) O 90 14,1 C 34,6 C 2,1 km/h (1 Bft)
03.08.2013 14:05 30,7 C 37 % 1024,6 hPa 0,0 l/m 2,6 km/h (1 Bft) W 270 14,3 C 34,4 C 2,4 km/h (1 Bft)
03.08.2013 14:10 31,6 C 36 % 1024,6 hPa 0,0 l/m 1,6 km/h (1 Bft) S-SW 202 14,7 C 34,8 C 5,5 km/h (1 Bft)
03.08.2013 14:15 30,5 C 37 % 1024,6 hPa 0,0 l/m 2,6 km/h (1 Bft) W-NW 292 14,1 C 34,5 C 4,2 km/h (1 Bft)
03.08.2013 14:20 30,1 C 38 % 1024,6 hPa 0,0 l/m 3,5 km/h (1 Bft) NO 45 14,2 C 33,6 C 2,3 km/h (1 Bft)
03.08.2013 14:25 30,7 C 38 % 1024,7 hPa 0,0 l/m 3,1 km/h (1 Bft) N 360 14,7 C 33,3 C 5,1 km/h (1 Bft)
03.08.2013 14:30 32,0 C 35 % 1024,7 hPa 0,0 l/m 3,2 km/h (1 Bft) NW 315 14,6 C 34,0 C 5,3 km/h (1 Bft)
03.08.2013 14:35 32,6 C 35 % 1024,7 hPa 0,0 l/m 3,4 km/h (1 Bft) W-SW 247 15,1 C 34,8 C 4,5 km/h (1 Bft)
03.08.2013 14:40 32,2 C 35 % 1024,7 hPa 0,0 l/m 2,7 km/h (1 Bft) W 270 14,8 C 34,8 C 3,2 km/h (1 Bft)
03.08.2013 14:45 31,1 C 36 % 1024,6 hPa 0,0 l/m 3,2 km/h (1 Bft) N-NO 22 14,2 C 34,6 C 7,9 km/h (2 Bft)
03.08.2013 14:50 29,6 C 39 % 1024,6 hPa 0,0 l/m 4,2 km/h (1 Bft) O 90 14,2 C 33,3 C 7,1 km/h (2 Bft)
03.08.2013 14:55 29,8 C 40 % 1024,6 hPa 0,0 l/m 4,0 km/h (1 Bft) NO 45 14,7 C 32,6 C 4,0 km/h (1 Bft)
03.08.2013 15:00 30,2 C 41 % 1024,6 hPa 0,0 l/m 2,3 km/h (1 Bft) NO 45 15,5 C 32,6 C 2,4 km/h (1 Bft)
03.08.2013 15:05 29,9 C 40 % 1024,4 hPa 0,0 l/m 1,9 km/h (1 Bft) W-NW 292 14,8 C 32,7 C 3,2 km/h (1 Bft)
03.08.2013 15:10 29,6 C 42 % 1024,4 hPa 0,0 l/m 3,7 km/h (1 Bft) N-NW 337 15,3 C 32,2 C 7,2 km/h (2 Bft)
03.08.2013 15:15 30,7 C 40 % 1024,4 hPa 0,0 l/m 3,7 km/h (1 Bft) W-NW 292 15,5 C 32,2 C 2,9 km/h (1 Bft)
03.08.2013 15:20 31,3 C 37 % 1024,4 hPa 0,0 l/m 4,8 km/h (1 Bft) N 360 14,8 C 33,2 C 8,9 km/h (2 Bft)
03.08.2013 15:25 31,0 C 37 % 1024,4 hPa 0,0 l/m 5,3 km/h (1 Bft) W-SW 247 14,6 C 33,1 C 2,7 km/h (1 Bft)
03.08.2013 15:30 31,2 C 38 % 1024,4 hPa 0,0 l/m 5,6 km/h (1 Bft) W-SW 247 15,2 C 33,3 C 8,7 km/h (2 Bft)
03.08.2013 15:35 30,6 C 37 % 1024,4 hPa 0,0 l/m 5,5 km/h (1 Bft) N-NW 337 14,2 C 33,2 C 6,0 km/h (2 Bft)
03.08.2013 15:40 30,9 C 37 % 1024,4 hPa 0,7 l/m 5,0 km/h (1 Bft) W-SW 247 14,5 C 33,4 C 5,5 km/h (1 Bft)
03.08.2013 15:45 30,9 C 38 % 1024,4 hPa 0,0 l/m 4,0 km/h (1 Bft) N-NW 337 14,9 C 33,7 C 7,1 km/h (2 Bft)
03.08.2013 15:50 30,9 C 38 % 1024,4 hPa 0,0 l/m 4,3 km/h (1 Bft) N 360 14,9 C 33,7 C 7,4 km/h (2 Bft)
03.08.2013 15:55 31,1 C 37 % 1024,4 hPa 0,0 l/m 4,0 km/h (1 Bft) W-NW 292 14,7 C 33,9 C 6,1 km/h (2 Bft)
03.08.2013 16:00 31,1 C 37 % 1024,4 hPa 0,0 l/m 4,0 km/h (1 Bft) NW 315 14,7 C 33,8 C 4,8 km/h (1 Bft)
03.08.2013 16:05 31,2 C 38 % 1024,1 hPa 0,0 l/m 3,9 km/h (1 Bft) N-NW 337 15,2 C 34,1 C 3,9 km/h (1 Bft)
03.08.2013 16:10 30,7 C 38 % 1024,1 hPa 0,0 l/m 3,5 km/h (1 Bft) S-SO 157 14,7 C 34,0 C 2,4 km/h (1 Bft)
03.08.2013 16:15 30,7 C 38 % 1024,1 hPa 0,0 l/m 4,7 km/h (1 Bft) W-SW 247 14,7 C 33,8 C 8,0 km/h (2 Bft)
03.08.2013 16:20 31,1 C 37 % 1024,1 hPa 0,0 l/m 3,9 km/h (1 Bft) W 270 14,7 C 34,0 C 5,3 km/h (1 Bft)
03.08.2013 16:25 30,9 C 38 % 1023,9 hPa 0,0 l/m 3,9 km/h (1 Bft) NW 315 14,9 C 34,0 C 3,5 km/h (1 Bft)
03.08.2013 16:30 30,4 C 37 % 1023,9 hPa 0,0 l/m 4,5 km/h (1 Bft) N-NO 22 14,0 C 34,1 C 4,5 km/h (1 Bft)
03.08.2013 16:35 30,2 C 39 % 1023,9 hPa 0,0 l/m 4,3 km/h (1 Bft) W-SW 247 14,7 C 34,1 C 3,1 km/h (1 Bft)
03.08.2013 16:40 30,0 C 38 % 1023,9 hPa 0,0 l/m 4,0 km/h (1 Bft) W-NW 292 14,1 C 34,2 C 2,4 km/h (1 Bft)
03.08.2013 16:45 30,0 C 39 % 1024,2 hPa 0,0 l/m 3,4 km/h (1 Bft) N 360 14,5 C 34,3 C 3,4 km/h (1 Bft)
03.08.2013 16:50 29,6 C 39 % 1024,2 hPa 0,0 l/m 3,9 km/h (1 Bft) NW 315 14,2 C 34,5 C 6,4 km/h (2 Bft)
03.08.2013 16:55 29,4 C 40 % 1024,2 hPa 0,0 l/m 4,5 km/h (1 Bft) W-NW 292 14,4 C 34,2 C 6,1 km/h (2 Bft)
03.08.2013 17:00 29,1 C 40 % 1024,2 hPa 0,0 l/m 3,4 km/h (1 Bft) W-NW 292 14,1 C 34,6 C 6,1 km/h (2 Bft)
03.08.2013 17:05 29,0 C 41 % 1023,7 hPa 0,0 l/m 2,4 km/h (1 Bft) O 90 14,4 C 34,8 C 4,3 km/h (1 Bft)
03.08.2013 17:10 29,0 C 40 % 1023,7 hPa 0,0 l/m 2,4 km/h (1 Bft) N 360 14,0 C 35,3 C 2,4 km/h (1 Bft)
03.08.2013 17:15 29,1 C 40 % 1023,7 hPa 0,0 l/m 3,9 km/h (1 Bft) W-NW 292 14,1 C 34,7 C 4,5 km/h (1 Bft)
03.08.2013 17:20 28,8 C 42 % 1023,7 hPa 0,0 l/m 3,7 km/h (1 Bft) NW 315 14,6 C 34,5 C 1,8 km/h (1 Bft)
03.08.2013 17:25 28,8 C 43 % 1023,3 hPa 0,0 l/m 2,4 km/h (1 Bft) W-NW 292 15,0 C 35,0 C 3,1 km/h (1 Bft)
03.08.2013 17:30 28,8 C 43 % 1023,3 hPa 0,0 l/m 3,9 km/h (1 Bft) N-NW 337 15,0 C 34,7 C 7,7 km/h (2 Bft)
03.08.2013 17:35 28,9 C 43 % 1023,3 hPa 0,0 l/m 4,3 km/h (1 Bft) W-SW 247 15,0 C 34,3 C 4,8 km/h (1 Bft)
03.08.2013 17:40 28,8 C 43 % 1023,3 hPa 0,0 l/m 4,0 km/h (1 Bft) W-NW 292 15,0 C 34,2 C 4,5 km/h (1 Bft)
03.08.2013 17:45 28,7 C 42 % 1023,4 hPa 0,0 l/m 4,3 km/h (1 Bft) W 270 14,5 C 33,9 C 6,0 km/h (2 Bft)
03.08.2013 17:50 28,6 C 43 % 1023,4 hPa 0,0 l/m 3,7 km/h (1 Bft) N-NW 337 14,8 C 33,9 C 3,4 km/h (1 Bft)
03.08.2013 17:55 28,6 C 44 % 1023,4 hPa 0,0 l/m 3,5 km/h (1 Bft) W-NW 292 15,1 C 34,1 C 4,0 km/h (1 Bft)
03.08.2013 18:00 28,5 C 44 % 1023,4 hPa 0,0 l/m 3,7 km/h (1 Bft) W-SW 247 15,0 C 33,9 C 6,0 km/h (2 Bft)
03.08.2013 18:05 28,3 C 46 % 1023,6 hPa 0,0 l/m 3,9 km/h (1 Bft) W 270 15,6 C 33,7 C 4,0 km/h (1 Bft)
03.08.2013 18:10 28,2 C 44 % 1023,6 hPa 0,0 l/m 4,3 km/h (1 Bft) W 270 14,8 C 33,5 C 5,5 km/h (1 Bft)
03.08.2013 18:15 28,1 C 44 % 1023,6 hPa 0,0 l/m 5,0 km/h (1 Bft) W-NW 292 14,7 C 33,2 C 8,2 km/h (2 Bft)
03.08.2013 18:20 28,0 C 45 % 1023,6 hPa 0,0 l/m 4,5 km/h (1 Bft) O-NO 67 14,9 C 33,0 C 2,7 km/h (1 Bft)
03.08.2013 18:25 27,8 C 45 % 1023,8 hPa 0,0 l/m 4,8 km/h (1 Bft) W 270 14,8 C 32,8 C 6,8 km/h (2 Bft)
03.08.2013 18:30 27,7 C 47 % 1023,8 hPa 0,0 l/m 5,0 km/h (1 Bft) W-SW 247 15,3 C 32,5 C 3,2 km/h (1 Bft)
03.08.2013 18:35 27,7 C 45 % 1023,8 hPa 0,0 l/m 5,3 km/h (1 Bft) S 180 14,7 C 32,2 C 4,3 km/h (1 Bft)
03.08.2013 18:40 27,4 C 46 % 1023,8 hPa 0,0 l/m 4,0 km/h (1 Bft) W-NW 292 14,7 C 32,1 C 3,1 km/h (1 Bft)
03.08.2013 18:45 27,5 C 46 % 1023,4 hPa 0,0 l/m 3,7 km/h (1 Bft) W 270 14,8 C 32,2 C 6,4 km/h (2 Bft)
03.08.2013 18:50 27,4 C 46 % 1023,4 hPa 0,0 l/m 4,3 km/h (1 Bft) SW 225 14,7 C 31,9 C 10,1 km/h (2 Bft)
03.08.2013 18:55 27,3 C 45 % 1023,4 hPa 0,0 l/m 5,0 km/h (1 Bft) S-SW 202 14,3 C 31,5 C 7,2 km/h (2 Bft)
03.08.2013 19:00 26,8 C 47 % 1023,4 hPa 0,0 l/m 5,3 km/h (1 Bft) S 180 14,5 C 30,4 C 2,9 km/h (1 Bft)
03.08.2013 19:05 26,4 C 47 % 1023,5 hPa 0,0 l/m 4,3 km/h (1 Bft) S-SW 202 14,2 C 29,5 C 5,5 km/h (1 Bft)
03.08.2013 19:10 25,9 C 49 % 1023,5 hPa 0,0 l/m 3,2 km/h (1 Bft) S 180 14,4 C 28,6 C 0,0 km/h (0 Bft)
03.08.2013 19:15 25,6 C 49 % 1023,5 hPa 0,0 l/m 3,2 km/h (1 Bft) S 180 14,1 C 28,0 C 3,2 km/h (1 Bft)
03.08.2013 19:20 25,4 C 49 % 1023,5 hPa 0,0 l/m 1,6 km/h (1 Bft) O-SO 112 13,9 C 27,4 C 0,0 km/h (0 Bft)
03.08.2013 19:25 25,3 C 49 % 1023,7 hPa 0,0 l/m 0,6 km/h (0 Bft) O 90 13,8 C 27,2 C 0,0 km/h (0 Bft)
03.08.2013 19:30 24,9 C 51 % 1023,7 hPa 0,0 l/m 0,2 km/h (0 Bft) S 180 14,1 C 26,9 C 0,0 km/h (0 Bft)
03.08.2013 19:35 24,8 C 51 % 1023,7 hPa 0,0 l/m 0,2 km/h (0 Bft) S-SO 157 14,0 C 26,7 C 0,0 km/h (0 Bft)
03.08.2013 19:40 24,5 C 52 % 1023,7 hPa 0,0 l/m 0,5 km/h (0 Bft) S 180 14,0 C 26,2 C 1,8 km/h (1 Bft)
03.08.2013 19:45 24,6 C 52 % 1023,8 hPa 0,0 l/m 0,5 km/h (0 Bft) S-SO 157 14,1 C 26,0 C 0,0 km/h (0 Bft)
03.08.2013 19:50 24,6 C 52 % 1023,8 hPa 0,0 l/m 0,2 km/h (0 Bft) S 180 14,1 C 25,9 C 0,0 km/h (0 Bft)
03.08.2013 19:55 24,6 C 53 % 1023,8 hPa 0,0 l/m 0,0 km/h (0 Bft) S 180 14,4 C 25,8 C 2,1 km/h (1 Bft)
03.08.2013 20:00 24,6 C 53 % 1023,8 hPa 0,0 l/m 0,8 km/h (0 Bft) S 180 14,4 C 25,7 C 0,0 km/h (0 Bft)
03.08.2013 20:05 24,6 C 53 % 1023,9 hPa 0,0 l/m 1,3 km/h (1 Bft) S 180 14,4 C 25,7 C 1,8 km/h (1 Bft)
03.08.2013 20:10 24,6 C 53 % 1023,9 hPa 0,0 l/m 1,3 km/h (1 Bft) O-SO 112 14,4 C 25,6 C 0,0 km/h (0 Bft)
03.08.2013 20:15 24,5 C 53 % 1023,9 hPa 0,0 l/m 1,6 km/h (1 Bft) SO 135 14,3 C 25,5 C 3,7 km/h (1 Bft)
03.08.2013 20:20 24,3 C 55 % 1023,9 hPa 0,0 l/m 1,1 km/h (1 Bft) W-NW 292 14,7 C 25,4 C 0,0 km/h (0 Bft)
03.08.2013 20:25 24,2 C 55 % 1023,4 hPa 0,0 l/m 0,8 km/h (0 Bft) W-NW 292 14,6 C 25,3 C 0,0 km/h (0 Bft)
03.08.2013 20:30 24,3 C 54 % 1023,4 hPa 0,0 l/m 0,6 km/h (0 Bft) O-SO 112 14,4 C 25,1 C 2,6 km/h (1 Bft)
03.08.2013 20:35 24,3 C 54 % 1023,4 hPa 0,0 l/m 1,1 km/h (1 Bft) S-SO 157 14,4 C 25,0 C 3,7 km/h (1 Bft)
03.08.2013 20:40 24,1 C 55 % 1023,4 hPa 0,0 l/m 2,1 km/h (1 Bft) S 180 14,5 C 25,0 C 2,7 km/h (1 Bft)
03.08.2013 20:45 24,1 C 56 % 1024,6 hPa 0,0 l/m 2,7 km/h (1 Bft) O-SO 112 14,8 C 24,9 C 5,3 km/h (1 Bft)
03.08.2013 20:50 23,8 C 56 % 1024,6 hPa 0,0 l/m 1,8 km/h (1 Bft) S 180 14,5 C 24,8 C 1,6 km/h (1 Bft)
03.08.2013 20:55 23,8 C 59 % 1024,6 hPa 0,0 l/m 2,4 km/h (1 Bft) S 180 15,3 C 24,7 C 6,9 km/h (2 Bft)
03.08.2013 21:00 23,3 C 65 % 1024,6 hPa 0,0 l/m 7,4 km/h (2 Bft) S-SW 202 16,3 C 23,6 C 22,7 km/h (4 Bft)
03.08.2013 21:05 22,3 C 72 % 1025,8 hPa 0,0 l/m 10,1 km/h (2 Bft) O-SO 112 17,0 C 21,6 C 8,0 km/h (2 Bft)
03.08.2013 21:10 20,8 C 79 % 1025,8 hPa 0,0 l/m 10,1 km/h (2 Bft) O-SO 112 17,0 C 19,5 C 26,2 km/h (4 Bft)
03.08.2013 21:15 20,2 C 82 % 1025,8 hPa 0,0 l/m 10,1 km/h (2 Bft) S 180 17,0 C 18,5 C 10,0 km/h (2 Bft)
03.08.2013 21:20 19,1 C 85 % 1025,8 hPa 0,7 l/m 8,2 km/h (2 Bft) S 180 16,5 C 18,1 C 20,1 km/h (4 Bft)
03.08.2013 21:25 18,4 C 85 % 1027,2 hPa 0,0 l/m 7,9 km/h (2 Bft) SW 225 15,8 C 17,4 C 14,0 km/h (3 Bft)
03.08.2013 21:30 17,5 C 85 % 1027,2 hPa 0,7 l/m 8,7 km/h (2 Bft) O-SO 112 14,9 C 16,0 C 8,2 km/h (2 Bft)
03.08.2013 21:35 17,3 C 86 % 1027,2 hPa 0,0 l/m 7,1 km/h (2 Bft) SO 135 14,9 C 16,3 C 7,1 km/h (2 Bft)
03.08.2013 21:40 17,0 C 87 % 1027,2 hPa 0,0 l/m 5,6 km/h (1 Bft) S 180 14,8 C 16,4 C 5,5 km/h (1 Bft)
03.08.2013 21:45 16,9 C 88 % 1027,3 hPa 0,7 l/m 6,4 km/h (2 Bft) S-SW 202 14,9 C 16,3 C 7,4 km/h (2 Bft)
03.08.2013 21:50 16,6 C 89 % 1027,3 hPa 0,0 l/m 4,8 km/h (1 Bft) O 90 14,8 C 16,2 C 2,1 km/h (1 Bft)
03.08.2013 21:55 16,4 C 89 % 1027,3 hPa 0,0 l/m 2,9 km/h (1 Bft) NO 45 14,6 C 16,1 C 4,5 km/h (1 Bft)
03.08.2013 22:00 16,4 C 90 % 1027,3 hPa 0,0 l/m 2,1 km/h (1 Bft) SO 135 14,8 C 16,1 C 4,8 km/h (1 Bft)
03.08.2013 22:05 16,3 C 90 % 1028,1 hPa 0,7 l/m 2,4 km/h (1 Bft) W-NW 292 14,7 C 16,1 C 2,4 km/h (1 Bft)
03.08.2013 22:10 16,2 C 90 % 1028,1 hPa 0,0 l/m 3,4 km/h (1 Bft) S 180 14,6 C 15,9 C 3,5 km/h (1 Bft)
03.08.2013 22:15 16,0 C 90 % 1028,1 hPa 0,0 l/m 2,7 km/h (1 Bft) N 360 14,4 C 15,8 C 0,0 km/h (0 Bft)
03.08.2013 22:20 15,8 C 92 % 1028,1 hPa 0,7 l/m 1,1 km/h (1 Bft) N 360 14,5 C 15,8 C 0,0 km/h (0 Bft)
03.08.2013 22:25 15,9 C 92 % 1028,4 hPa 0,0 l/m 0,8 km/h (0 Bft) W-NW 292 14,6 C 15,8 C 1,8 km/h (1 Bft)
03.08.2013 22:30 15,9 C 92 % 1028,4 hPa 0,0 l/m 2,1 km/h (1 Bft) S 180 14,6 C 15,8 C 4,0 km/h (1 Bft)
03.08.2013 22:35 15,9 C 92 % 1028,4 hPa 0,7 l/m 2,1 km/h (1 Bft) N-NW 337 14,6 C 15,9 C 4,2 km/h (1 Bft)
03.08.2013 22:40 15,9 C 93 % 1028,4 hPa 0,7 l/m 1,8 km/h (1 Bft) W-NW 292 14,8 C 15,9 C 3,9 km/h (1 Bft)
03.08.2013 22:45 15,9 C 93 % 1028,3 hPa 0,0 l/m 1,8 km/h (1 Bft) S 180 14,8 C 15,9 C 0,0 km/h (0 Bft)
03.08.2013 22:50 15,8 C 93 % 1028,3 hPa 0,7 l/m 1,6 km/h (1 Bft) W 270 14,7 C 15,8 C 5,0 km/h (1 Bft)
03.08.2013 22:55 15,8 C 93 % 1028,3 hPa 0,7 l/m 2,1 km/h (1 Bft) N-NW 337 14,7 C 15,8 C 2,1 km/h (1 Bft)
03.08.2013 23:00 15,7 C 93 % 1028,3 hPa 0,0 l/m 2,1 km/h (1 Bft) N 360 14,6 C 15,7 C 6,9 km/h (2 Bft)
03.08.2013 23:05 15,6 C 93 % 1025,6 hPa 0,0 l/m 4,0 km/h (1 Bft) N 360 14,5 C 15,7 C 13,0 km/h (3 Bft)
03.08.2013 23:10 15,4 C 93 % 1025,6 hPa 0,7 l/m 7,9 km/h (2 Bft) N-NO 22 14,3 C 14,6 C 13,7 km/h (3 Bft)
03.08.2013 23:15 15,4 C 93 % 1025,6 hPa 0,0 l/m 8,9 km/h (2 Bft) N-NO 22 14,3 C 13,9 C 15,9 km/h (3 Bft)
03.08.2013 23:20 15,4 C 93 % 1025,6 hPa 0,0 l/m 7,7 km/h (2 Bft) N 360 14,3 C 14,6 C 5,0 km/h (1 Bft)
03.08.2013 23:25 15,5 C 93 % 1024,8 hPa 0,0 l/m 6,6 km/h (2 Bft) W-NW 292 14,4 C 15,4 C 4,3 km/h (1 Bft)
03.08.2013 23:30 15,5 C 93 % 1024,8 hPa 0,0 l/m 3,2 km/h (1 Bft) W-SW 247 14,4 C 15,6 C 1,6 km/h (1 Bft)
03.08.2013 23:35 15,5 C 93 % 1024,8 hPa 0,0 l/m 1,9 km/h (1 Bft) NO 45 14,4 C 15,7 C 0,0 km/h (0 Bft)
03.08.2013 23:40 15,4 C 93 % 1024,8 hPa 0,0 l/m 0,5 km/h (0 Bft) SW 225 14,3 C 15,5 C 0,0 km/h (0 Bft)
03.08.2013 23:45 15,4 C 93 % 1025,1 hPa 0,0 l/m 0,2 km/h (0 Bft) NO 45 14,3 C 15,5 C 0,0 km/h (0 Bft)
03.08.2013 23:50 15,4 C 93 % 1025,1 hPa 0,0 l/m 0,5 km/h (0 Bft) S 180 14,3 C 15,4 C 0,0 km/h (0 Bft)
03.08.2013 23:55 15,4 C 93 % 1025,1 hPa 0,0 l/m 0,8 km/h (0 Bft) W-NW 292 14,3 C 15,5 C 0,0 km/h (0 Bft)
_ Min-Zeit 06:15 12:00 05:00 - 19:55 - - 06:15 23:15 23:55
Minimum _ 14,6 C 30 % 1020,2 hPa - 0,0 km/h (0 Bft) - - 11,4 C 13,9 C 0,0 km/h (0 Bft)
_ Max-Zeit 11:40 23:55 22:40 23:10 21:15 - - 21:15 17:10 21:10
Maximum _ 33,6 C 93 % 1028,4 hPa 0,7 l/m 10,1 km/h
S (2 Bft)
- - 17,0 C 35,3 C 26,2 km/h
O-SO (4 Bft)
Durchschnitt _ 23,6 C 58 % 1023,5 hPa #7,6 l/m 2,5 km/h (1 Bft) S - 13,7 C 24,8 C 3,5 km/h (1 Bft)